Location: Bercimuel
(41.3983°N, 3.5711°W)
Time: 10:44:26
(UTC+00:00)

Okean-O - Pass Details

Date: 15 May 2026
Orbit: 627 x 629 km, 97.9° (Epoch: 6 June)

Event Time Altitude Azimuth Distance (km) Brightness Sun altitude
Exits shadow 21:52:12 21° 218° (SW) 1,434 4.2 -21.6°
Maximum altitude 21:54:18 31° 264° (W) 1,117 4.1 -21.8°
Drops below altitude 10° 21:58:11 10° 326° (NW) 2,012 6.3 -22.2°
Sets 22:00:36 0° 337° (NNW) 2,924 7.4 -22.5°
